Time,TemperatureF,DewpointF,PressureIn,WindDirection,WindDirectionDegrees,WindSpeedMPH,WindSpeedGustMPH,Humidity,HourlyPrecipIn,Conditions,Clouds,dailyrainin,SoftwareType,DateUTC
2013-04-27 00:05:00,47.4,46.0,30.17,NNW,337,3.0,-999.0,93,-99.99,,,0.00,weatherlink.com 1.10,2013-04-27 07:05:00,
2013-04-27 00:19:00,47.3,46.0,30.17,NW,304,9.0,-999.0,94,-99.99,,,0.00,weatherlink.com 1.10,2013-04-27 07:19:00,
2013-04-27 00:34:00,47.2,46.0,30.17,NNW,347,5.0,-999.0,94,-99.99,,,0.00,weatherlink.com 1.10,2013-04-27 07:34:00,
2013-04-27 00:49:00,47.1,46.0,30.17,NNE,22,2.0,-999.0,94,-99.99,,,0.00,weatherlink.com 1.10,2013-04-27 07:49:00,
2013-04-27 01:04:00,47.1,46.0,30.16,NW,315,6.0,-999.0,94,-99.99,,,0.00,weatherlink.com 1.10,2013-04-27 08:04:00,
2013-04-27 01:18:00,47.0,45.0,30.16,NNW,336,1.0,-999.0,94,-99.99,,,0.00,weatherlink.com 1.10,2013-04-27 08:18:00,
2013-04-27 01:34:00,46.9,45.0,30.16,NNW,333,0.0,-999.0,94,-99.99,,,0.00,weatherlink.com 1.10,2013-04-27 08:34:00,
2013-04-27 01:49:00,46.8,45.0,30.16,North,360,0.0,-999.0,94,-99.99,,,0.00,weatherlink.com 1.10,2013-04-27 08:49:00,
2013-04-27 02:04:00,46.7,45.0,30.16,North,355,2.0,-999.0,94,-99.99,,,0.00,weatherlink.com 1.10,2013-04-27 09:04:00,
2013-04-27 02:19:00,46.6,45.0,30.16,NNE,33,3.0,-999.0,94,-99.99,,,0.00,weatherlink.com 1.10,2013-04-27 09:19:00,
2013-04-27 02:33:00,46.6,45.0,30.15,North,5,0.0,-999.0,94,-99.99,,,0.00,weatherlink.com 1.10,2013-04-27 09:33:00,
2013-04-27 02:49:00,46.6,45.0,30.15,NNW,342,5.0,-999.0,94,-99.99,,,0.00,weatherlink.com 1.10,2013-04-27 09:49:00,
2013-04-27 03:04:00,46.4,45.0,30.15,NNW,337,6.0,-999.0,94,-99.99,,,0.00,weatherlink.com 1.10,2013-04-27 10:04:00,
2013-04-27 03:18:00,46.4,45.0,30.15,NE,42,2.0,-999.0,94,-99.99,,,0.00,weatherlink.com 1.10,2013-04-27 10:18:00,
2013-04-27 03:35:00,46.3,45.0,30.15,WNW,302,6.0,-999.0,94,-99.99,,,0.00,weatherlink.com 1.10,2013-04-27 10:35:00,
2013-04-27 03:49:00,46.3,45.0,30.15,North,9,6.0,-999.0,95,-99.99,,,0.00,weatherlink.com 1.10,2013-04-27 10:49:00,
2013-04-27 04:03:00,46.1,45.0,30.15,NNW,340,1.0,-999.0,95,-99.99,,,0.00,weatherlink.com 1.10,2013-04-27 11:03:00,
2013-04-27 04:19:00,46.1,45.0,30.15,NNE,16,2.0,-999.0,94,-99.99,,,0.00,weatherlink.com 1.10,2013-04-27 11:19:00,
2013-04-27 04:33:00,46.0,44.0,30.15,NNW,333,2.0,-999.0,94,-99.99,,,0.00,weatherlink.com 1.10,2013-04-27 11:33:00,
2013-04-27 04:48:00,45.9,44.0,30.15,NW,319,1.0,-999.0,94,-99.99,,,0.00,weatherlink.com 1.10,2013-04-27 11:48:00,
2013-04-27 05:03:00,45.9,44.0,30.15,NE,46,2.0,-999.0,94,-99.99,,,0.00,weatherlink.com 1.10,2013-04-27 12:03:00,
2013-04-27 05:19:00,45.8,45.0,30.15,NNE,26,1.0,-999.0,95,-99.99,,,0.00,weatherlink.com 1.10,2013-04-27 12:19:00,
2013-04-27 05:34:00,45.8,45.0,30.16,NNW,327,3.0,-999.0,95,-99.99,,,0.00,weatherlink.com 1.10,2013-04-27 12:34:00,
2013-04-27 05:48:00,45.7,44.0,30.16,North,5,1.0,-999.0,95,-99.99,,,0.00,weatherlink.com 1.10,2013-04-27 12:48:00,
2013-04-27 06:04:00,45.6,44.0,30.16,NNE,19,3.0,-999.0,95,-99.99,,,0.00,weatherlink.com 1.10,2013-04-27 13:04:00,
2013-04-27 06:19:00,45.5,44.0,30.16,NNE,12,1.0,-999.0,95,-99.99,,,0.00,weatherlink.com 1.10,2013-04-27 13:19:00,
2013-04-27 06:34:00,45.5,44.0,30.16,NNE,28,3.0,-999.0,95,-99.99,,,0.00,weatherlink.com 1.10,2013-04-27 13:34:00,
2013-04-27 06:49:00,45.4,44.0,30.16,NNE,29,0.0,-999.0,95,-99.99,,,0.00,weatherlink.com 1.10,2013-04-27 13:49:00,
2013-04-27 07:04:00,45.4,44.0,30.17,NNE,20,1.0,-999.0,95,-99.99,,,0.00,weatherlink.com 1.10,2013-04-27 14:04:00,
2013-04-27 07:19:00,45.5,44.0,30.17,NNW,340,4.0,-999.0,95,-99.99,,,0.00,weatherlink.com 1.10,2013-04-27 14:19:00,
2013-04-27 07:34:00,45.7,44.0,30.18,NE,34,2.0,-999.0,95,-99.99,,,0.00,weatherlink.com 1.10,2013-04-27 14:34:00,
2013-04-27 07:48:00,45.9,45.0,30.18,North,350,5.0,-999.0,95,-99.99,,,0.00,weatherlink.com 1.10,2013-04-27 14:48:00,
2013-04-27 08:03:00,46.2,45.0,30.18,NNE,24,4.0,-999.0,95,-99.99,,,0.00,weatherlink.com 1.10,2013-04-27 15:03:00,
2013-04-27 08:18:00,46.1,45.0,30.18,NNW,335,4.0,-999.0,95,-99.99,,,0.00,weatherlink.com 1.10,2013-04-27 15:18:00,
2013-04-27 08:39:00,46.3,45.0,30.18,NNE,33,1.0,-999.0,95,-99.99,,,0.00,weatherlink.com 1.10,2013-04-27 15:39:00,
2013-04-27 08:49:00,46.2,45.0,30.19,NNW,344,3.0,-999.0,95,-99.99,,,0.00,weatherlink.com 1.10,2013-04-27 15:49:00,
2013-04-27 09:04:00,46.3,45.0,30.19,NNW,339,1.0,-999.0,95,-99.99,,,0.00,weatherlink.com 1.10,2013-04-27 16:04:00,
2013-04-27 09:19:00,46.5,45.0,30.19,NNW,327,6.0,-999.0,95,-99.99,,,0.00,weatherlink.com 1.10,2013-04-27 16:19:00,
2013-04-27 09:39:00,47.0,46.0,30.19,West,274,4.0,-999.0,95,-99.99,,,0.00,weatherlink.com 1.10,2013-04-27 16:39:00,
2013-04-27 09:48:00,47.1,46.0,30.19,NW,319,5.0,-999.0,95,-99.99,,,0.00,weatherlink.com 1.10,2013-04-27 16:48:00,
2013-04-27 10:03:00,47.4,46.0,30.20,NW,317,5.0,-999.0,95,-99.99,,,0.00,weatherlink.com 1.10,2013-04-27 17:03:00,
2013-04-27 10:18:00,47.5,46.0,30.20,NNW,330,9.0,-999.0,95,-99.99,,,0.00,weatherlink.com 1.10,2013-04-27 17:18:00,
2013-04-27 10:39:00,47.2,46.0,30.20,NW,313,9.0,-999.0,95,-99.99,,,0.00,weatherlink.com 1.10,2013-04-27 17:39:00,
2013-04-27 10:49:00,47.6,46.0,30.20,WNW,302,6.0,-999.0,95,-99.99,,,0.00,weatherlink.com 1.10,2013-04-27 17:49:00,
2013-04-27 11:04:00,47.8,46.0,30.21,NW,322,8.0,-999.0,94,-99.99,,,0.00,weatherlink.com 1.10,2013-04-27 18:04:00,
2013-04-27 11:19:00,47.9,46.0,30.21,NW,309,7.0,-999.0,94,-99.99,,,0.00,weatherlink.com 1.10,2013-04-27 18:19:00,
2013-04-27 11:39:00,48.2,47.0,30.21,NW,321,11.0,-999.0,94,-99.99,,,0.00,weatherlink.com 1.10,2013-04-27 18:39:00,
2013-04-27 11:49:00,48.3,47.0,30.20,NW,315,13.0,-999.0,94,-99.99,,,0.00,weatherlink.com 1.10,2013-04-27 18:49:00,
2013-04-27 12:04:00,48.2,48.0,30.21,NW,307,12.0,-999.0,98,-99.99,,,0.00,weatherlink.com 1.10,2013-04-27 19:04:00,
2013-04-27 12:19:00,48.4,47.0,30.20,NNW,336,12.0,-999.0,93,-99.99,,,0.00,weatherlink.com 1.10,2013-04-27 19:19:00,
2013-04-27 12:39:00,49.0,47.0,30.20,WNW,293,8.0,-999.0,93,-99.99,,,0.00,weatherlink.com 1.10,2013-04-27 19:39:00,
2013-04-27 12:48:00,49.3,47.0,30.20,NNW,348,8.0,-999.0,92,-99.99,,,0.00,weatherlink.com 1.10,2013-04-27 19:48:00,
2013-04-27 13:03:00,49.6,48.0,30.20,NW,307,9.0,-999.0,93,-99.99,,,0.00,weatherlink.com 1.10,2013-04-27 20:03:00,
2013-04-27 13:18:00,50.1,48.0,30.19,NW,307,11.0,-999.0,92,-99.99,,,0.00,weatherlink.com 1.10,2013-04-27 20:18:00,
2013-04-27 13:48:00,49.6,47.0,30.19,NW,309,7.0,-999.0,91,-99.99,,,0.00,weatherlink.com 1.10,2013-04-27 20:48:00,
2013-04-27 14:03:00,49.9,48.0,30.18,NW,326,7.0,-999.0,92,-99.99,,,0.00,weatherlink.com 1.10,2013-04-27 21:03:00,
2013-04-27 14:18:00,49.4,47.0,30.18,NW,306,8.0,-999.0,91,-99.99,,,0.00,weatherlink.com 1.10,2013-04-27 21:18:00,
2013-04-27 14:39:00,49.7,47.0,30.17,WNW,303,8.0,-999.0,91,-99.99,,,0.00,weatherlink.com 1.10,2013-04-27 21:39:00,
2013-04-27 14:49:00,49.9,47.0,30.17,NW,315,11.0,-999.0,90,-99.99,,,0.00,weatherlink.com 1.10,2013-04-27 21:49:00,
2013-04-27 15:04:00,49.9,47.0,30.17,NW,317,10.0,-999.0,90,-99.99,,,0.00,weatherlink.com 1.10,2013-04-27 22:04:00,
2013-04-27 15:19:00,51.0,48.0,30.16,WNW,302,11.0,-999.0,89,-99.99,,,0.00,weatherlink.com 1.10,2013-04-27 22:19:00,
2013-04-27 15:39:00,50.9,48.0,30.16,NNW,339,13.0,-999.0,90,-99.99,,,0.00,weatherlink.com 1.10,2013-04-27 22:39:00,
2013-04-27 15:48:00,50.8,48.0,30.16,NE,35,9.0,-999.0,90,-99.99,,,0.00,weatherlink.com 1.10,2013-04-27 22:48:00,
2013-04-27 16:03:00,50.4,47.0,30.15,NW,308,13.0,-999.0,89,-99.99,,,0.00,weatherlink.com 1.10,2013-04-27 23:03:00,
2013-04-27 16:18:00,50.1,47.0,30.15,NNW,340,6.0,-999.0,90,-99.99,,,0.00,weatherlink.com 1.10,2013-04-27 23:18:00,
2013-04-27 16:39:00,50.2,47.0,30.14,NNW,342,4.0,-999.0,90,-99.99,,,0.00,weatherlink.com 1.10,2013-04-27 23:39:00,
2013-04-27 16:48:00,50.3,47.0,30.14,NNW,327,13.0,-999.0,89,-99.99,,,0.00,weatherlink.com 1.10,2013-04-27 23:48:00,
2013-04-27 17:03:00,50.4,47.0,30.14,NNW,334,7.0,-999.0,89,-99.99,,,0.00,weatherlink.com 1.10,2013-04-28 00:03:00,
2013-04-27 17:18:00,50.3,47.0,30.13,NNW,332,11.0,-999.0,89,-99.99,,,0.00,weatherlink.com 1.10,2013-04-28 00:18:00,
2013-04-27 17:39:00,50.6,48.0,30.13,NNW,348,4.0,-999.0,89,-99.99,,,0.00,weatherlink.com 1.10,2013-04-28 00:39:00,
2013-04-27 17:49:00,50.3,47.0,30.12,NW,319,10.0,-999.0,88,-99.99,,,0.00,weatherlink.com 1.10,2013-04-28 00:49:00,
2013-04-27 18:04:00,49.9,47.0,30.12,WNW,303,11.0,-999.0,88,-99.99,,,0.00,weatherlink.com 1.10,2013-04-28 01:04:00,
2013-04-27 18:19:00,49.9,47.0,30.12,NNW,342,5.0,-999.0,89,-99.99,,,0.00,weatherlink.com 1.10,2013-04-28 01:19:00,
2013-04-27 18:39:00,50.2,47.0,30.11,NNE,15,6.0,-999.0,88,-99.99,,,0.00,weatherlink.com 1.10,2013-04-28 01:39:00,
2013-04-27 18:48:00,50.5,47.0,30.10,NW,324,12.0,-999.0,87,-99.99,,,0.00,weatherlink.com 1.10,2013-04-28 01:48:00,
2013-04-27 19:03:00,50.1,46.0,30.10,NNW,335,6.0,-999.0,87,-99.99,,,0.00,weatherlink.com 1.10,2013-04-28 02:03:00,
2013-04-27 19:18:00,49.6,46.0,30.10,NE,41,9.0,-999.0,88,-99.99,,,0.00,weatherlink.com 1.10,2013-04-28 02:18:00,
2013-04-27 19:39:00,49.1,46.0,30.09,North,355,6.0,-999.0,89,-99.99,,,0.00,weatherlink.com 1.10,2013-04-28 02:39:00,
2013-04-27 19:48:00,48.6,46.0,30.09,NNW,344,7.0,-999.0,90,-99.99,,,0.00,weatherlink.com 1.10,2013-04-28 02:48:00,
2013-04-27 20:03:00,48.0,45.0,30.09,NNW,346,5.0,-999.0,90,-99.99,,,0.00,weatherlink.com 1.10,2013-04-28 03:03:00,
2013-04-27 20:18:00,47.5,45.0,30.08,North,350,3.0,-999.0,90,-99.99,,,0.00,weatherlink.com 1.10,2013-04-28 03:18:00,
2013-04-27 20:40:00,47.0,44.0,30.08,NNW,342,6.0,-999.0,90,-99.99,,,0.01,weatherlink.com 1.10,2013-04-28 03:40:00,
2013-04-27 20:49:00,46.5,44.0,30.08,North,355,7.0,-999.0,91,-99.99,,,0.01,weatherlink.com 1.10,2013-04-28 03:49:00,
2013-04-27 21:04:00,46.7,45.0,30.08,North,5,4.0,-999.0,92,-99.99,,,0.01,weatherlink.com 1.10,2013-04-28 04:04:00,
2013-04-27 21:19:00,46.5,44.0,30.09,North,360,3.0,-999.0,92,-99.99,,,0.01,weatherlink.com 1.10,2013-04-28 04:19:00,
2013-04-27 21:39:00,46.5,45.0,30.08,NNW,348,10.0,-999.0,93,-99.99,,,0.01,weatherlink.com 1.10,2013-04-28 04:39:00,
2013-04-27 21:48:00,46.5,45.0,30.09,NNE,24,3.0,-999.0,93,-99.99,,,0.01,weatherlink.com 1.10,2013-04-28 04:48:00,
2013-04-27 22:03:00,46.4,45.0,30.09,NNE,14,4.0,-999.0,93,-99.99,,,0.01,weatherlink.com 1.10,2013-04-28 05:03:00,
2013-04-27 22:19:00,46.3,44.0,30.09,NNE,26,8.0,-999.0,93,-99.99,,,0.01,weatherlink.com 1.10,2013-04-28 05:19:00,
2013-04-27 22:39:00,46.3,44.0,30.09,NE,34,6.0,-999.0,93,-99.99,,,0.01,weatherlink.com 1.10,2013-04-28 05:39:00,
2013-04-27 22:48:00,46.3,44.0,30.09,NNE,15,8.0,-999.0,93,-99.99,,,0.01,weatherlink.com 1.10,2013-04-28 05:48:00,
2013-04-27 23:03:00,46.3,44.0,30.09,NNW,341,3.0,-999.0,93,-99.99,,,0.01,weatherlink.com 1.10,2013-04-28 06:03:00,
2013-04-27 23:19:00,46.2,44.0,30.09,North,5,8.0,-999.0,93,-99.99,,,0.01,weatherlink.com 1.10,2013-04-28 06:19:00,
2013-04-27 23:49:00,45.9,44.0,30.08,NNE,30,5.0,-999.0,93,-99.99,,,0.01,weatherlink.com 1.10,2013-04-28 06:49:00,